When you browse on this site, cookies collect data to enhance your experience and personalize the content and advertising you see.
Visit our Privacy Policy to learn more. By continuing to use the site, you agree to this use of cookies and data.
EN

Hourly Weather Vivchyts'k

Today, 6 August, Thursday

Time Temperature Precipitation Wind Pressure Humidity
00:00 +18°C° 0 mm 2 mps 748 mmHg 97%
01:00 +18°C° 0 mm 2 mps 748 mmHg 97%
02:00 +18°C° 0 mm 2 mps 748 mmHg 98%
03:00 +18°C° 0 mm 2 mps 748 mmHg 98%
04:00 +17°C° 0 mm 2 mps 748 mmHg 98%
05:00 +17°C° 0 mm 2 mps 748 mmHg 98%
06:00 +18°C° 0 mm 2 mps 749 mmHg 96%
07:00 +20°C° 0 mm 3 mps 749 mmHg 94%
08:00 +21°C° 0 mm 3 mps 750 mmHg 91%
09:00 +24°C° 0 mm 3 mps 750 mmHg 84%
10:00 +25°C° 0 mm 3 mps 750 mmHg 77%
11:00 +27°C° 0 mm 3 mps 750 mmHg 70%
12:00 +28°C° 0.1 mm 3 mps 750 mmHg 65%
13:00 +29°C° 0.1 mm 3 mps 750 mmHg 59%
14:00 +30°C° 0 mm 3 mps 750 mmHg 54%
15:00 +30°C° 0.1 mm 3 mps 750 mmHg 57%
16:00 +30°C° 0.1 mm 3 mps 750 mmHg 59%
17:00 +29°C° 0.1 mm 3 mps 750 mmHg 61%
18:00 +27°C° 0.1 mm 3 mps 750 mmHg 68%
19:00 +26°C° 0.1 mm 3 mps 750 mmHg 75%
20:00 +24°C° 0.1 mm 3 mps 750 mmHg 82%
21:00 +22°C° 0 mm 3 mps 750 mmHg 85%
22:00 +21°C° 0 mm 3 mps 750 mmHg 88%
23:00 +21°C° 0 mm 3 mps 750 mmHg 91%

Tomorrow, 7 August, Friday

Time Temperature Precipitation Wind Pressure Humidity
00:00 +20°C° 0 mm 3 mps 750 mmHg 92%
01:00 +20°C° 0 mm 3 mps 751 mmHg 93%
02:00 +20°C° 0 mm 2 mps 751 mmHg 94%
03:00 +20°C° 0 mm 2 mps 751 mmHg 95%
04:00 +19°C° 0 mm 2 mps 751 mmHg 96%
05:00 +19°C° 0 mm 2 mps 751 mmHg 96%
06:00 +20°C° 0 mm 3 mps 751 mmHg 93%
07:00 +21°C° 0 mm 3 mps 751 mmHg 90%
08:00 +22°C° 0 mm 3 mps 751 mmHg 87%
09:00 +25°C° 0.5 mm 3 mps 751 mmHg 81%
10:00 +26°C° 0.5 mm 4 mps 752 mmHg 75%
11:00 +28°C° 0.5 mm 4 mps 752 mmHg 69%
12:00 +28°C° 0.8 mm 4 mps 751 mmHg 67%
13:00 +29°C° 0.8 mm 3 mps 751 mmHg 65%
14:00 +29°C° 0.8 mm 3 mps 751 mmHg 63%
15:00 +29°C° 0.6 mm 3 mps 751 mmHg 65%
16:00 +28°C° 0.6 mm 3 mps 750 mmHg 66%
17:00 +28°C° 0.6 mm 3 mps 750 mmHg 68%
18:00 +27°C° 0.2 mm 3 mps 750 mmHg 74%
19:00 +25°C° 0.2 mm 3 mps 750 mmHg 80%
20:00 +24°C° 0.2 mm 3 mps 750 mmHg 86%
21:00 +22°C° 0 mm 3 mps 750 mmHg 86%
22:00 +21°C° 0 mm 3 mps 750 mmHg 87%
23:00 +20°C° 0 mm 3 mps 751 mmHg 87%

Day after tomorrow, 8 August, Saturday

Time Temperature Precipitation Wind Pressure Humidity
00:00 +20°C° 0 mm 3 mps 750 mmHg 88%
01:00 +19°C° 0 mm 3 mps 750 mmHg 88%
02:00 +19°C° 0 mm 3 mps 750 mmHg 89%
03:00 +18°C° 0 mm 3 mps 750 mmHg 90%
04:00 +18°C° 0 mm 3 mps 750 mmHg 91%
05:00 +17°C° 0 mm 2 mps 750 mmHg 93%
06:00 +19°C° 0 mm 3 mps 750 mmHg 89%
07:00 +20°C° 0 mm 3 mps 750 mmHg 85%
08:00 +21°C° 0 mm 3 mps 751 mmHg 81%
09:00 +24°C° 0 mm 3 mps 751 mmHg 75%
10:00 +25°C° 0 mm 3 mps 751 mmHg 69%
11:00 +27°C° 0 mm 3 mps 751 mmHg 63%
12:00 +27°C° 0 mm 3 mps 750 mmHg 60%
13:00 +28°C° 0 mm 3 mps 750 mmHg 58%
14:00 +29°C° 0 mm 3 mps 750 mmHg 56%
15:00 +28°C° 0 mm 3 mps 749 mmHg 57%
16:00 +28°C° 0 mm 3 mps 749 mmHg 58%
17:00 +28°C° 0 mm 2 mps 749 mmHg 59%
18:00 +27°C° 0 mm 2 mps 749 mmHg 65%
19:00 +25°C° 0 mm 2 mps 749 mmHg 72%
20:00 +23°C° 0 mm 2 mps 749 mmHg 78%
21:00 +21°C° 0 mm 2 mps 749 mmHg 81%
22:00 +21°C° 0 mm 2 mps 749 mmHg 84%
23:00 +20°C° 0 mm 2 mps 749 mmHg 87%

9 August, Sunday

Time Temperature Precipitation Wind Pressure Humidity
00:00 +19°C° 0 mm 2 mps 749 mmHg 88%
01:00 +19°C° 0 mm 2 mps 748 mmHg 90%
02:00 +19°C° 0 mm 2 mps 748 mmHg 91%
03:00 +18°C° 0 mm 2 mps 748 mmHg 92%
04:00 +18°C° 0 mm 2 mps 748 mmHg 93%
05:00 +19°C° 0 mm 1 mps 748 mmHg 93%
06:00 +20°C° 0 mm 1 mps 748 mmHg 89%
07:00 +22°C° 0 mm 1 mps 748 mmHg 84%
08:00 +23°C° 0 mm 2 mps 748 mmHg 79%
09:00 +24°C° 0 mm 2 mps 748 mmHg 74%
10:00 +26°C° 0 mm 2 mps 748 mmHg 68%
11:00 +27°C° 0 mm 2 mps 748 mmHg 62%
12:00 +27°C° 0 mm 2 mps 748 mmHg 60%
13:00 +28°C° 0 mm 2 mps 748 mmHg 58%
14:00 +28°C° 0 mm 2 mps 748 mmHg 56%
15:00 +28°C° 0 mm 2 mps 747 mmHg 56%
16:00 +28°C° 0 mm 2 mps 747 mmHg 57%
17:00 +28°C° 0 mm 2 mps 747 mmHg 57%
18:00 +26°C° 0 mm 2 mps 747 mmHg 63%
19:00 +24°C° 0 mm 2 mps 747 mmHg 69%
20:00 +23°C° 0 mm 1 mps 746 mmHg 74%
21:00 +22°C° 0 mm 1 mps 747 mmHg 77%
22:00 +21°C° 0 mm 1 mps 747 mmHg 79%
23:00 +21°C° 0 mm 1 mps 747 mmHg 81%

10 August, Monday

Time Temperature Precipitation Wind Pressure Humidity
00:00 +20°C° 0 mm 1 mps 747 mmHg 83%
01:00 +20°C° 0 mm 1 mps 747 mmHg 84%
02:00 +20°C° 0 mm 1 mps 746 mmHg 85%
03:00 +20°C° 0 mm 1 mps 746 mmHg 86%
04:00 +19°C° 0 mm 1 mps 746 mmHg 87%
05:00 +17°C° 0 mm 0 mps 746 mmHg 87%
06:00 +21°C° 0 mm 1 mps 746 mmHg 83%
07:00 +22°C° 0 mm 1 mps 747 mmHg 79%
08:00 +23°C° 0 mm 1 mps 747 mmHg 74%
09:00 +25°C° 0.1 mm 1 mps 747 mmHg 69%
10:00 +26°C° 0.1 mm 1 mps 747 mmHg 65%
11:00 +27°C° 0.1 mm 1 mps 747 mmHg 60%
12:00 +28°C° 0.2 mm 1 mps 747 mmHg 58%
13:00 +28°C° 0.2 mm 1 mps 746 mmHg 56%
14:00 +27°C° 0.2 mm 0 mps 746 mmHg 54%
15:00 +28°C° 0.4 mm 1 mps 746 mmHg 56%
16:00 +28°C° 0.4 mm 1 mps 746 mmHg 59%
17:00 +28°C° 0.4 mm 1 mps 746 mmHg 61%
18:00 +26°C° 0.1 mm 1 mps 746 mmHg 66%
19:00 +22°C° 0.1 mm 0 mps 745 mmHg 71%
20:00 +21°C° 0.1 mm 0 mps 745 mmHg 76%
21:00 +20°C° 0 mm 0 mps 745 mmHg 77%
22:00 +20°C° 0 mm 0 mps 745 mmHg 79%
23:00 +19°C° 0 mm 0 mps 746 mmHg 80%

11 August, Tuesday

Time Temperature Precipitation Wind Pressure Humidity
00:00 +19°C° 0 mm 0 mps 745 mmHg 81%
01:00 +18°C° 0 mm 0 mps 745 mmHg 82%
02:00 +18°C° 0 mm 0 mps 745 mmHg 84%
03:00 +18°C° 0 mm 0 mps 745 mmHg 84%
04:00 +18°C° 0 mm 0 mps 745 mmHg 85%
05:00 +17°C° 0 mm 0 mps 745 mmHg 86%
06:00 +19°C° 0 mm 0 mps 745 mmHg 82%
07:00 +20°C° 0 mm 0 mps 745 mmHg 79%
08:00 +22°C° 0 mm 0 mps 745 mmHg 75%
09:00 +23°C° 0.2 mm 0 mps 745 mmHg 71%
10:00 +26°C° 0.2 mm 1 mps 745 mmHg 67%
11:00 +27°C° 0.2 mm 1 mps 745 mmHg 62%
12:00 +28°C° 0.1 mm 1 mps 745 mmHg 59%
13:00 +27°C° 0.1 mm 0 mps 745 mmHg 55%
14:00 +27°C° 0.1 mm 0 mps 744 mmHg 51%
15:00 +27°C° 0.7 mm 1 mps 744 mmHg 61%
16:00 +25°C° 0.7 mm 2 mps 744 mmHg 71%
17:00 +24°C° 0.7 mm 3 mps 744 mmHg 80%
18:00 +23°C° 0.1 mm 2 mps 744 mmHg 81%
19:00 +21°C° 0.1 mm 2 mps 744 mmHg 82%
20:00 +22°C° 0.1 mm 1 mps 744 mmHg 83%
21:00 +21°C° 0.4 mm 1 mps 744 mmHg 85%
22:00 +21°C° 0.4 mm 1 mps 744 mmHg 86%
23:00 +20°C° 0.4 mm 1 mps 744 mmHg 88%
Show more